Theta_e
362 362 362 361 348 345 350 351 352 349 350 348 346 346 346 345 346 346 344 346 347 345 344 345 343 341 333 328 330 332 333 334 334 334 336 335 336 336 335 337 339 336 339 337 340 333 333 334 335
364 364 363 359 344 345 347 349 357 354 352 350 348 348 347 346 343 343 344 345 346 346 345 346 345 340 332 327 332 337 338 337 334 334 334 334 334 335 335 338 332 339 339 336 338 335 333 333 334
363 365 360 352 347 349 354 354 353 352 350 352 353 353 347 343 343 344 345 344 344 344 345 345 341 339 332 327 331 334 336 335 336 336 337 337 337 336 335 337 329 327 329 332 331 331 332 333 340
361 362 357 346 348 347 353 354 351 352 351 350 350 346 344 347 344 344 345 342 343 341 342 344 336 335 330 326 327 328 332 332 332 333 334 337 337 336 337 335 332 325 331 333 335 335 333 338 340
359 358 339 344 347 348 354 353 351 354 353 352 350 349 350 349 343 343 342 339 339 340 335 336 329 328 325 325 328 329 333 334 332 332 333 335 337 332 336 337 332 329 325 334 335 332 330 333 337
352 346 340 347 349 347 354 354 354 354 353 351 350 351 351 345 348 348 344 342 336 335 327 327 326 327 328 335 334 331 332 334 333 338 336 330 334 334 335 336 332 328 327 325 335 330 328 330 337
348 339 341 346 348 349 355 351 352 352 352 351 350 351 350 349 348 348 348 342 335 329 324 331 335 342 341 338 332 332 334 333 334 337 329 326 331 335 337 338 335 335 334 328 326 324 323 328 334
348 336 343 345 348 348 353 354 351 352 352 350 349 352 352 351 351 351 349 348 343 330 328 336 338 338 338 338 337 332 330 331 337 335 331 332 329 331 333 333 333 333 335 331 331 326 331 330 330
341 341 345 347 348 348 353 355 353 353 351 353 350 349 350 350 351 351 349 349 347 338 334 336 338 338 340 338 333 334 337 338 338 332 336 335 332 332 333 334 333 330 327 330 330 331 330 330 330
337 339 343 343 344 350 354 353 352 352 352 350 349 349 350 352 351 351 350 349 347 338 336 337 337 336 336 335 333 332 335 333 334 335 336 336 336 335 333 335 335 330 329 330 330 329 328 327 328
339 340 340 342 346 353 354 353 350 351 351 348 349 348 349 349 349 349 348 347 342 343 342 339 338 337 335 333 333 334 331 332 335 335 335 336 337 336 336 335 335 334 332 331 330 329 330 331 331
342 340 339 344 347 352 354 354 350 352 349 347 346 345 348 348 348 346 346 345 344 345 342 338 336 337 335 338 336 336 334 334 334 336 336 335 337 337 335 335 334 335 335 333 332 332 332 334 337
340 341 340 344 346 350 353 354 355 352 350 349 348 347 347 346 346 346 342 342 346 345 346 343 341 338 344 342 342 341 343 342 336 338 338 338 338 339 336 335 336 335 336 335 334 334 334 333 333
339 342 341 345 347 351 355 354 354 352 351 352 351 349 348 348 347 346 344 341 346 345 346 347 345 344 345 342 341 338 338 339 342 340 341 342 339 341 342 339 339 337 335 335 335 337 339 337 335
341 343 342 343 347 352 353 353 355 353 351 352 352 351 350 349 349 348 345 345 345 344 345 346 346 346 345 345 345 345 343 342 341 342 342 342 341 340 341 341 342 342 341 341 341 341 342 342 340
337 339 345 344 346 351 342 352 353 352 351 351 351 351 351 351 350 349 347 346 346 346 346 346 346 346 346 346 346 347 345 343 344 343 342 342 343 342 341 341 341 342 343 343 343 342 342 342 342
332 339 339 345 345 346 343 349 352 352 350 351 351 351 351 351 351 349 348 346 347 346 346 346 346 346 347 347 347 347 345 345 344 345 345 345 344 344 344 344 343 342 342 343 342 343 344 343 343
337 336 336 345 344 344 345 346 352 351 350 350 350 349 351 352 350 349 349 347 347 346 346 346 346 346 347 347 347 347 347 347 348 346 347 347 347 347 347 346 347 345 345 344 343 343 342 343 343
333 334 335 338 342 344 345 345 352 350 349 349 349 348 348 349 348 349 349 348 348 347 347 347 347 347 347 347 347 347 347 348 348 347 347 346 347 348 348 348 348 348 346 346 345 345 344 344 343
332 334 336 337 340 342 340 344 350 349 348 348 346 346 347 347 348 349 349 348 348 348 347 347 347 347 347 347 348 348 349 350 351 350 349 348 348 347 347 346 346 349 347 347 346 347 344 344 344
332 333 334 336 340 339 342 344 349 347 347 347 345 346 346 347 347 347 349 348 348 348 347 347 347 348 348 349 348 349 349 351 355 354 353 352 351 349 349 348 347 347 348 348 346 346 346 345 344
332 332 334 337 339 341 339 343 345 343 344 345 346 345 346 346 345 346 346 347 347 348 347 349 350 350 350 350 350 350 351 353 354 355 353 355 354 352 351 351 349 348 349 348 350 347 345 346 345
331 332 333 336 332 328 333 341 342 339 342 347 348 347 346 346 347 349 348 349 348 347 346 348 350 350 351 350 352 353 354 354 355 354 354 355 354 353 352 352 350 348 348 348 348 350 347 345 346
330 331 328 326 325 329 332 338 340 341 343 344 348 349 347 345 345 342 348 348 347 348 350 350 350 353 353 353 353 356 355 357 355 352 352 351 352 351 351 349 351 350 348 347 347 347 348 348 346
328 325 329 331 330 330 330 334 341 337 339 342 350 349 344 341 341 343 346 348 347 347 346 350 353 353 354 355 351 348 359 353 350 351 352 350 348 345 348 349 349 350 347 346 345 345 347 346 346
325 327 329 333 330 332 336 340 344 340 343 346 349 348 346 341 340 342 344 343 339 343 348 349 345 353 355 351 346 348 349 342 341 343 340 340 344 342 344 345 343 342 344 347 346 344 344 344 344
328 331 326 325 327 335 339 344 344 345 346 345 344 344 344 343 342 339 341 340 339 343 346 347 339 335 347 345 342 346 348 347 347 346 346 347 349 347 348 347 342 344 343 342 342 337 341 344 346
330 328 333 327 336 345 346 345 340 349 350 346 345 344 344 343 342 341 342 343 345 342 341 340 344 336 345 345 346 346 347 347 346 347 349 348 347 346 345 345 345 345 345 346 345 343 338 337 340
322 328 325 326 331 341 346 344 337 346 348 346 345 343 341 344 343 344 347 344 342 344 337 341 336 337 342 345 346 347 346 346 347 347 347 345 345 346 345 345 346 346 345 345 345 344 344 342 338
325 326 326 329 331 336 336 339 338 341 343 342 345 342 344 349 350 347 346 344 347 344 341 342 337 339 340 341 338 337 336 336 336 334 333 332 332 331 331 333 333 337 342 344 345 345 344 343 344
Wind_Speed
5 4 4 3 3 5 3 4 2 0 2 3 9 3 7 4 1 4 28 22 21 23 24 22 22 23 22 23 23 21 19 17 17 18 17 16 15 14 11 10 11 13 13 13 13 14 13 13 13
3 4 2 0 5 4 3 5 4 5 5 20 14 11 7 4 6 23 25 25 21 23 23 22 21 23 23 23 22 21 20 19 19 18 17 15 13 12 11 11 11 13 13 13 13 13 13 14 14
2 3 3 3 3 3 2 3 5 9 13 5 6 13 5 4 18 25 28 27 21 23 23 22 21 21 23 23 21 20 19 18 17 17 15 14 14 11 11 11 10 11 13 13 13 14 13 14 14
3 2 2 4 2 2 5 10 11 9 9 8 16 10 10 10 9 23 27 24 21 22 21 20 21 21 21 20 18 16 15 14 13 13 12 12 11 11 10 10 10 11 13 14 13 12 13 13 13
4 2 5 3 4 4 8 18 20 4 5 9 7 7 6 6 21 27 26 23 21 22 21 20 20 20 20 18 16 14 14 13 12 11 10 9 8 8 9 10 10 11 11 12 12 11 12 13 13
2 3 4 4 4 4 5 13 11 7 7 12 14 11 6 20 24 23 23 20 19 20 21 21 20 19 17 15 12 12 13 13 11 11 8 7 8 8 9 10 10 11 10 11 11 11 10 11 12
3 4 2 4 4 2 5 9 11 10 11 7 12 5 15 23 21 20 17 19 17 19 20 20 19 16 15 13 12 11 12 12 11 11 9 7 7 8 8 9 10 10 9 9 10 11 12 11 12
3 4 2 2 4 3 9 6 15 9 6 13 17 5 10 26 21 19 17 17 16 18 18 17 16 15 14 13 12 11 11 12 12 12 8 6 7 9 7 7 8 10 11 9 9 10 10 11 12
5 4 1 3 4 3 16 7 7 3 15 2 6 9 23 27 23 21 19 18 16 18 17 15 13 13 12 11 10 11 11 11 12 11 6 4 7 8 9 6 9 10 11 10 9 9 9 9 9
4 3 6 5 6 6 11 17 12 5 6 10 18 21 28 24 22 21 20 19 17 19 17 15 13 11 11 11 10 12 12 12 12 12 6 2 6 7 13 12 12 14 13 12 11 10 9 9 8
5 5 4 2 11 22 17 14 8 17 2 18 26 31 28 25 22 20 18 16 16 13 15 16 14 13 12 13 12 13 12 11 12 13 9 3 5 6 8 13 15 14 14 13 12 12 11 10 10
4 5 6 9 17 16 10 13 11 5 9 22 25 28 28 27 26 22 19 20 20 15 11 12 13 15 13 10 10 11 13 13 13 14 13 11 8 10 9 10 16 19 17 16 15 13 13 14 12
3 7 7 14 20 19 22 17 8 11 20 24 26 27 26 24 22 20 16 19 20 17 15 13 13 14 13 6 4 12 15 13 14 13 12 12 11 9 12 12 16 19 21 19 17 17 18 18 18
5 7 12 14 17 16 14 14 7 15 24 22 25 27 25 22 22 20 20 20 21 18 18 17 14 14 13 12 8 1 9 8 13 14 12 11 11 10 11 13 11 13 18 21 21 19 18 19 21
17 6 3 5 10 6 27 0 7 25 27 25 26 26 25 22 20 23 21 21 20 18 17 19 15 17 18 17 13 9 6 8 11 11 10 10 11 11 11 12 14 14 15 17 17 17 17 18 19
8 5 3 4 5 15 2 3 7 28 29 26 24 25 26 27 26 23 24 22 21 21 18 18 20 20 19 18 15 13 13 13 11 9 9 9 11 13 14 14 12 12 14 16 18 18 19 20 17
6 5 4 2 9 6 2 4 14 27 27 25 25 26 29 28 29 27 22 22 21 22 20 19 18 19 18 15 14 14 14 15 12 12 12 11 11 12 12 12 10 13 15 16 16 17 19 18 17
2 1 2 6 10 7 6 5 16 25 24 24 26 26 30 31 30 26 24 22 18 22 21 19 17 18 20 17 17 19 19 15 14 14 11 10 12 14 14 13 12 15 16 16 15 17 14 16 14
3 4 7 9 8 9 15 7 20 25 22 20 23 25 30 35 27 28 27 26 26 24 24 23 21 16 21 22 22 21 14 10 12 12 12 9 10 13 15 13 13 13 14 11 13 14 16 16 12
2 5 12 8 6 15 8 5 17 20 26 22 20 25 31 24 30 30 29 29 28 24 22 21 24 19 19 25 25 24 21 18 16 12 11 15 14 14 16 15 10 11 12 12 12 12 13 15 13
3 4 9 8 5 3 7 3 7 9 9 16 19 32 28 28 27 27 32 32 31 30 20 20 16 21 15 19 25 25 26 22 18 15 15 11 12 13 14 12 11 13 11 11 12 13 14 13 14
8 3 10 4 5 4 3 3 7 5 9 12 24 32 36 32 26 25 32 29 31 31 26 19 14 11 13 13 21 25 22 20 15 18 17 16 15 15 12 11 11 14 13 13 11 12 14 15 16
12 7 9 13 6 5 1 5 5 5 6 7 19 33 38 29 15 3 9 14 25 28 30 26 22 20 12 11 16 18 18 16 15 17 16 15 13 14 11 10 11 12 11 14 14 12 14 16 16
9 7 6 4 4 3 4 4 3 4 8 4 13 21 10 14 11 9 15 15 17 13 22 28 32 27 21 15 17 14 13 15 18 16 15 12 10 9 9 12 12 10 13 13 12 13 16 15 16
4 6 3 3 5 5 5 5 6 9 4 2 12 15 15 16 25 25 25 21 12 14 14 17 26 29 22 16 16 12 14 14 13 14 13 11 9 10 8 9 10 9 10 11 10 9 13 16 18
5 8 5 5 4 3 5 3 1 5 5 11 16 21 20 18 21 28 24 13 5 11 9 8 13 13 16 11 8 10 9 7 7 8 9 7 6 6 6 6 6 6 7 7 9 10 12 13 14
3 3 3 7 3 4 2 1 2 4 3 7 7 16 14 15 21 26 20 14 12 10 14 6 11 21 20 8 11 9 9 10 11 9 10 11 12 12 11 12 11 11 10 8 9 10 11 11 12
5 4 3 3 4 2 4 3 5 4 7 6 8 13 19 17 15 19 15 8 6 8 10 25 25 14 16 13 15 14 13 13 12 11 14 13 14 14 14 14 13 13 13 12 12 11 9 11 11
4 1 5 6 3 5 4 6 5 9 11 12 12 21 15 10 14 15 7 5 2 9 12 9 25 36 9 8 10 9 9 9 11 13 15 16 17 18 18 17 16 16 16 15 16 16 15 14 14
5 8 8 4 4 2 4 5 4 10 12 11 19 19 11 9 8 13 10 10 9 18 18 18 28 18 11 8 6 8 11 14 16 17 19 20 21 22 22 23 22 21 22 21 21 21 21 19 19
Wind_Direction
92 95 109 70 59 63 22 68 74 116 152 89 140 125 119 30 78 166 142 144 142 139 138 139 143 144 144 140 133 131 130 131 131 131 132 129 133 140 136 123 122 125 123 122 117 122 120 115 110
29 32 33 28 73 64 326 347 128 219 128 104 98 101 58 72 100 137 142 146 143 143 144 143 146 148 146 143 140 135 135 133 133 137 137 135 135 136 133 131 129 131 133 133 127 123 122 120 117
3 359 332 72 93 123 121 112 126 132 139 123 117 72 71 98 112 138 143 143 146 146 144 145 146 149 149 151 144 140 136 135 137 139 140 140 136 138 137 141 134 141 141 141 137 133 127 131 126
332 303 27 65 81 47 127 139 145 154 100 95 119 79 87 88 130 146 140 146 150 148 148 146 146 149 151 153 152 147 143 143 146 144 142 138 140 139 147 150 147 145 143 141 139 137 138 139 136
348 334 46 52 42 96 129 158 167 155 84 103 106 98 84 121 143 142 145 147 152 149 151 149 149 152 152 153 152 149 146 148 146 143 139 139 146 146 159 158 155 154 153 149 146 148 145 147 142
50 57 57 70 44 121 121 138 125 85 91 107 100 93 82 140 148 146 149 148 152 153 153 152 152 153 153 156 162 162 162 157 150 147 143 141 145 143 172 171 163 159 156 156 152 150 150 155 155
147 89 223 122 108 139 154 142 111 130 117 86 131 87 138 151 150 150 149 149 150 157 159 156 156 159 166 164 165 165 166 159 158 154 144 138 152 157 169 171 171 168 162 166 165 160 155 163 171
181 96 168 358 120 49 149 106 125 112 82 130 131 159 163 162 163 160 150 158 159 166 169 168 169 171 171 174 176 172 168 166 165 159 152 160 157 158 160 182 200 196 188 185 174 172 175 176 186
168 74 121 195 135 126 145 124 150 114 133 95 212 155 162 163 159 162 163 168 175 180 184 186 185 180 180 182 176 171 168 168 169 171 170 204 227 222 225 238 236 221 207 197 194 195 193 198 202
123 118 205 206 154 125 116 120 124 116 135 89 103 138 157 160 166 172 176 178 182 183 187 196 192 193 197 194 188 182 187 184 183 186 196 234 224 240 252 252 230 216 213 207 203 204 205 209 210
127 164 178 213 144 124 118 111 118 124 110 148 144 153 165 172 180 191 192 184 171 181 194 197 202 205 207 205 195 191 194 196 196 204 213 217 227 248 260 237 226 218 213 212 213 212 215 218 223
124 149 173 156 142 123 126 119 135 147 171 155 145 149 164 178 186 194 203 197 190 177 173 186 198 209 205 208 217 222 209 202 202 212 226 238 277 257 250 249 235 227 224 222 221 225 231 238 237
135 172 174 148 140 130 128 125 135 126 160 158 155 162 168 179 191 195 199 194 197 199 195 190 194 200 202 169 237 240 223 227 215 214 229 241 258 263 240 247 234 231 227 232 236 245 247 248 246
268 139 138 129 120 134 119 133 113 160 160 162 169 176 179 183 191 195 199 202 209 209 212 207 212 214 216 230 257 199 227 249 236 240 237 243 247 248 246 232 231 229 230 237 245 249 249 250 248
121 106 38 146 138 109 118 73 146 165 164 171 183 189 194 196 199 203 201 203 207 214 219 220 224 228 235 243 258 265 272 259 242 241 240 239 243 246 252 242 237 233 236 239 241 247 252 251 249
97 32 120 229 145 164 78 191 182 167 170 182 191 196 204 208 211 213 213 212 215 217 220 228 231 235 242 248 257 270 270 267 253 243 242 241 239 240 245 250 249 248 246 251 252 250 254 258 260
28 169 228 209 205 148 209 153 192 178 177 187 197 200 210 218 221 220 214 217 222 221 226 227 233 241 243 254 257 259 262 258 259 253 248 244 243 239 245 252 256 249 250 252 249 260 255 260 264
150 88 294 212 208 192 190 216 176 191 188 195 197 200 209 219 225 222 220 218 228 229 236 241 243 248 242 252 256 248 247 244 252 258 269 252 252 248 250 257 262 256 250 253 252 248 258 260 262
257 217 226 231 217 180 208 163 180 191 199 198 198 211 210 216 219 224 220 223 221 224 233 238 242 251 247 253 254 254 264 265 264 269 274 294 279 276 266 258 255 261 261 259 250 247 241 252 250
3 312 291 276 183 183 153 212 184 186 205 197 188 208 214 212 216 219 219 222 222 222 229 235 241 244 250 253 258 267 276 287 284 281 283 272 269 278 271 263 251 255 265 262 256 255 253 250 244
317 216 284 252 75 39 114 30 171 209 212 204 193 202 204 211 205 212 212 215 221 221 225 236 232 241 254 264 259 262 266 276 297 317 314 297 288 283 273 266 261 262 266 273 264 258 261 258 250
293 216 275 208 112 197 121 243 222 179 204 170 177 196 207 209 207 208 221 217 213 224 230 236 239 234 248 265 269 264 267 285 304 311 307 306 299 305 298 307 290 275 272 272 276 261 264 260 257
254 260 264 263 151 100 357 102 266 152 186 184 186 195 205 200 206 320 242 230 232 228 233 242 248 241 251 265 276 268 272 303 313 306 303 298 300 298 306 306 298 291 292 286 273 265 261 264 261
263 306 40 38 83 66 217 141 343 222 210 189 192 201 164 191 178 267 285 234 241 271 257 247 244 245 251 265 282 280 286 292 286 291 307 316 319 319 317 314 318 296 293 296 280 276 267 265 259
104 59 317 2 14 211 309 68 230 289 331 201 170 148 170 180 196 208 220 227 255 291 297 255 271 250 244 252 268 276 273 286 303 311 314 316 310 311 324 327 329 328 310 305 300 290 278 273 270
230 157 167 190 202 239 329 46 272 301 21 110 160 166 187 196 199 223 220 210 316 266 272 245 342 250 230 252 254 251 258 267 274 284 298 302 320 332 329 340 345 329 328 327 319 302 289 287 280
275 203 202 107 22 83 277 88 33 328 50 48 102 132 178 208 208 213 230 260 277 231 238 253 266 309 349 214 205 215 232 250 261 274 279 279 288 286 290 295 302 302 305 305 312 320 313 301 291
168 165 52 355 131 136 298 210 208 199 147 164 185 173 187 199 212 218 232 275 198 226 260 245 231 258 303 242 229 233 238 254 267 278 281 283 288 292 287 285 288 288 290 295 295 298 295 305 316
338 5 31 115 106 150 165 258 185 179 186 187 193 184 167 142 205 229 224 147 209 261 217 244 223 218 230 232 242 243 261 274 286 290 290 294 295 293 293 291 287 286 282 280 282 287 289 287 287
199 211 167 135 216 103 143 263 150 180 183 169 188 178 148 129 158 150 160 150 134 139 177 160 166 186 210 246 276 295 300 301 301 300 300 299 296 297 296 294 291 286 284 281 280 278 278 277 277